Flag Weather past 2 weeks in Koszalin, Poland

Now
46 °F

Overcast.


Feels Like: 46 °F
Forecast: 43 / 49 °F
Wind: 1 mph from Southwest

Location: Koszalin

Current Time: Oct 30, 2014 at 8:08:09 PM

Latest Report: Oct 30, 2014 at 6:00 PM


Visibility: 10 mi

Pressure: 30.30 "Hg

Humidity: 84%

Dew point: 42 °F

Location of KoszalinLocation

Historic Weather in Koszalin — Graph

°F

Koszalin temperature yesterday

Maximum temperature yesterday: 52 °F (at 2:00 PM)
Minimum temperature yesterday: 37 °F (at 7:00 AM)
Average temperature yesterday: 45 °F

Past Weeks' High & Low Weather Summary

 TemperatureHumidityPressure
High68 °F (Oct 19, 4:00 PM)96% (Oct 30, 9:00 AM)30.32 "Hg (Oct 30, 9:00 AM)
Low33 °F (Oct 25, 8:00 AM)51% (Oct 28, 2:00 PM)29.47 "Hg (Oct 22, 12:00 AM)
Average49 °F84%30.02 "Hg
* Reported Oct 15 7:00 PM — Oct 30 6:00 PM, Koszalin, Weather by CustomWeather, © 2014

Note: Actual official high and low records may vary slightly from our data, if they occured in-between our weather recording intervals... More about our weather records

Advertising

Koszalin weather history for previous 24 hours

 ConditionsComfort  
Time TempWeatherWind HumidityBarometerVisibility
6:00 PM
Oct 30
46 °FOvercast.1 mph84%30.30 "Hg10 mi
5:00 PM46 °FOvercast.1 mph81%30.29 "Hg17 mi
4:00 PM50 °FOvercast.1 mph74%30.27 "Hg17 mi
3:00 PM51 °FOvercast.3 mph69%30.27 "Hg22 mi
2:00 PM52 °FOvercast.3 mph71%30.27 "Hg19 mi
1:00 PM53 °FOvercast.2 mph68%30.24 "Hg17 mi
12:00 PM52 °FOvercast.2 mph68%30.24 "Hg16 mi
11:00 AM51 °FPartly sunny.1 mph90%30.23 "Hg10 mi
10:00 AM47 °FFog.2 mph95%30.23 "Hg4 mi
9:00 AM44 °FFog.1 mph96%30.22 "Hg1 mi
8:00 AM42 °FFog.2 mph94%30.20 "Hg0 mi
7:00 AM43 °FFog.1 mph94%30.18 "Hg0 mi
6:00 AM44 °FFog.2 mph94%30.16 "Hg0 mi
5:00 AM44 °FFog.1 mph93%30.15 "Hg1 mi
3:00 AM44 °FDrizzle. Low clouds.2 mph92%30.14 "Hg1 mi
2:00 AM44 °FDrizzle. Low clouds.2 mph90%30.13 "Hg1 mi
1:00 AM45 °FFog.2 mph83%30.12 "Hg3 mi
12:00 AM45 °FFog.1 mph82%30.11 "Hg3 mi
11:00 PM
Oct 29
45 °FFog.2 mph81%30.11 "Hg3 mi
10:00 PM46 °FFog.1 mph79%30.11 "Hg4 mi
9:00 PM45 °FFog.2 mph82%30.10 "Hg4 mi
8:00 PM45 °FFog.2 mph81%30.09 "Hg4 mi
Weather by CustomWeather, © 2014

See weather overviewHow to use our weather pages